Location: Huntsville
(41.2590°N, 111.7678°W)
Time: 18:42:49
(UTC+00:00)

N. Korean satellite - Pass Details

Date: 08 December 2021
Orbit: 446 x 492 km, 97.3° (Epoch: 17 January)

Event Time Altitude Azimuth Distance (km) Brightness Sun altitude
Rises 00:52:01 0° 207° (SSW) 2,522 11.0 -10.0°
Reaches altitude 10° 00:54:49 10° 232° (SW) 1,638 10.6 -10.5°
Maximum altitude 00:56:51 15° 267° (W) 1,373 10.0 -10.8°
Drops below altitude 10° 00:58:52 10° 302° (WNW) 1,630 9.8 -11.2°
Sets 01:01:39 0° 328° (NNW) 2,501 10.3 -11.7°
